Regional Weather Roundup
Issued by NWS Northern Indiana

Home | Current Version | Previous Version | Text Only | Print | Product List | Glossary On
Versions: 1 2 3 4 5 6 7 8 9 10 11 12 13 14 15 16 17 18 19 20 21 22 23 24 25 26 27 28 29 30 31 32 33 34 35 36 37 38 39 40 41 42 43 44 45 46 47 48 49 50
000
ASUS43 KIWX 242010
RWRIWX

KIWX WEATHER ROUNDUP
NATIONAL WEATHER SERVICE NORTHERN INDIANA
300 PM EST TUE JAN 24 2017

NOTE: "FAIR" INDICATES FEW OR NO CLOUDS BELOW 12,000 FEET WITH NO
SIGNIFICANT WEATHER AND/OR OBSTRUCTIONS TO VISIBILITY.

* THESE STATIONS ARE NOT UNDER NWS QUALITY CONTROL. THEY ALSO MAY NOT
  REPORT WEATHER SUCH AS PRECIPITATION OR FOG.

INZ001>027-242100-
NORTHERN INDIANA

CITY           SKY/WX    TMP DP  RH WIND       PRES   REMARKS
GARY*          CLOUDY    37  32  81 NE8       29.86F
VALPARAISO     CLOUDY    38  33  82 VRB3      29.84F HAZE
LAPORTE*       CLOUDY    36  32  88 NW6       29.85F
KNOX*          CLOUDY    37  19  48 NW3       29.84F
SOUTH BEND     CLOUDY    37  32  82 W10       29.84S
ELKHART*       CLOUDY    39  32  75 NW7       29.83S
GOSHEN         CLOUDY    39  32  76 NW12      29.82S
ROCHESTER*     CLOUDY    41  34  75 NW8       29.84S
WARSAW*        CLOUDY    37  30  75 W9        29.83S
FORT WAYNE     CLOUDY    41  33  73 NW9       29.82F
PERU/GRISSOM   CLOUDY    40  37  86 W8        29.83S
MARION*        CLOUDY    39  34  81 W10       29.84S HAZE

$$
INZ028>050-242100-
CENTRAL INDIANA

CITY           SKY/WX    TMP DP  RH WIND       PRES   REMARKS
LAFAYETTE      CLOUDY    39  33  79 W5        29.86S
KOKOMO*        CLOUDY    40  34  79 NW9       29.85S
MUNCIE*        CLOUDY    41  33  73 NW8       29.83F
INDIANAPOLIS   CLOUDY    41  32  70 NW7       29.84F

$$
MIZ043>046-050>051-056>058-064>065-071>073-077>080-242100-
SOUTHWEST LOWER MICHIGAN

CITY           SKY/WX    TMP DP  RH WIND       PRES   REMARKS
BATTLE CREEK   CLOUDY    39  35  86 NW9       29.79S
BENTON HARBOR  CLOUDY    38  34  85 W9        29.84S
COLDWATER*     CLOUDY    39  36  89 W10       29.79S
HILLSDALE*     CLOUDY    36  34  93 NW14G20   29.76S
HOLLAND        CLOUDY    39  37  92 W7        29.82R
GRAND RAPIDS   CLOUDY    40  34  79 W9        29.79S
KALAMAZOO      CLOUDY    40  34  79 NW13      29.81R
STURGIS*       CLOUDY    39  35  85 W7        29.80S
THREE RIVERS*  CLOUDY    39  35  85 W9        29.82S

$$
OHZ001>008-015>018-024>025-242100-
NORTHWEST OHIO

CITY           SKY/WX    TMP DP  RH WIND       PRES   REMARKS
DEFIANCE       CLOUDY    39  34  82 W8G18     29.80R
FINDLAY        CLOUDY    42  36  79 NW9       29.77R
TOLEDO EXPRESS CLOUDY    41  37  86 W12       29.77R
TOLEDO METCALF CLOUDY    42  38  85 W16       29.77R
LIMA           CLOUDY    41  37  86 W13       29.79R

$$
AND FOR LAKE MICHIGAN COASTAL AND OPEN LAKE BUOY OBSERVATIONS

STATION/POSITION TEMP    WIND        PRES    VSBY  WAVE
                 AIR SEA DIR/SP/G                  HT/PER
                 (F)     (DEG/KT/KT) (MB)    (MI)  (FT/S)
CALUMET HARBOR    34      40/  4/  7 1010.1F
BURNS HARBOR      34      20/  4/  4 1011.5F

$$
&&



USA.gov is the U.S. government's official web portal to all federal, state and local government web resources and services.